Weather History for Juliana Airport, St. Martin

Change the Weather History Date:

Sunday, April 21, 2013

  Actual Average Record
Temperature  
Mean Temperature 80 °F -  
Max Temperature 84 °F 84 °F 87 °F (2005)
Min Temperature 76 °F 75 °F 73 °F (2001)
Cooling Degree Days 15    
Growing Degree Days 30 (Base 50)    
Moisture  
Dew Point 64 °F    
Average Humidity 58    
Maximum Humidity 69    
Minimum Humidity 41    
Precipitation  
Precipitation 0.00 in 0.11 in - ()
Sea Level Pressure  
Sea Level Pressure 30.03 in    
Wind  
Wind Speed 13 mph ()    
Max Wind Speed 20 mph    
Max Gust Speed -    
Visibility 8.4 miles    
Events      
Averages and records for this station are not official NWS values.
T = Trace of Precipitation, MM = Missing Value Source: Averaged Metar Reports

Daily Weather History Graph

Daily Weather History Graph

Search for Another Location

Airport:

Trip Planner

Search our weather history database for the weather conditions in past years. The results will help you decide how hot, cold, wet, or windy it might be!

Date:

Astronomy

Apr. 21, 2013 Rise Set
Actual Time 5:51 AM AST 6:30 PM AST
Civil Twilight 5:29 AM AST 6:53 PM AST
Nautical Twilight 5:03 AM AST 7:19 PM AST
Astronomical Twilight 4:36 AM AST 7:46 PM AST
Moon 2:45 PM AST (4/21) 2:33 AM AST (4/21)
Length of Visible Light 13h 23m
Length of Day
12h 39m
Waxing Gibbous, 79% of the Moon is Illuminated
Apr 21
Waxing Gibbous
Apr 25
Full
May 2
Last Quarter
May 9
New
May 18
First Quarter

Hourly Weather History & Observations

Time (AST) Temp. Heat Index Dew Point Humidity Pressure Visibility Wind Dir Wind Speed Gust Speed Precip Events Conditions
12:00 AM 77.0 °F - 66.2 °F 69% 30.04 in 6.2 mi East 15.0 mph - N/A   Partly Cloudy
1:00 AM 77.0 °F - 66.2 °F 69% 30.01 in 6.2 mi East 15.0 mph - N/A   Partly Cloudy
2:00 AM 77 °F - 66 °F 60% 30.02 in 19 mi East 13.8 mph - -   Partly Cloudy
2:00 AM 77.0 °F - 66.2 °F 69% 30.01 in 6.2 mi East 13.8 mph - N/A   Scattered Clouds
3:00 AM 77.0 °F - 64.4 °F 65% 30.01 in 6.2 mi East 18.4 mph - N/A   Partly Cloudy
4:00 AM 77.0 °F - 64.4 °F 65% 30.01 in 6.2 mi East 15.0 mph - N/A   Partly Cloudy
5:00 AM 77 °F - 63 °F 54% 30.02 in 19 mi ENE 15.0 mph - -   Scattered Clouds
5:00 AM 77.0 °F - 62.6 °F 61% 30.01 in 6.2 mi ENE 15.0 mph - N/A   Partly Cloudy
6:00 AM 77.0 °F - 62.6 °F 61% 30.04 in 6.2 mi ENE 12.7 mph - N/A   Partly Cloudy
7:00 AM 78.8 °F - 60.8 °F 54% 30.06 in 6.2 mi ENE 15.0 mph - N/A   Partly Cloudy
8:00 AM 80 °F - 64 °F 49% 30.07 in 25 mi East 12.7 mph - -   Scattered Clouds
8:00 AM 78.8 °F - 64.4 °F 61% 30.06 in 6.2 mi East 12.7 mph - N/A   Partly Cloudy
9:00 AM 80.6 °F 82.7 °F 66.2 °F 61% 30.06 in 6.2 mi ENE 17.3 mph - N/A   Scattered Clouds
10:00 AM 80.6 °F 82.7 °F 66.2 °F 61% 30.06 in 6.2 mi ENE 18.4 mph - N/A   Scattered Clouds
11:00 AM 80 °F - 65 °F 51% 30.06 in 19 mi ENE 15.0 mph - -   Mostly Cloudy
11:00 AM 80.6 °F 82.3 °F 64.4 °F 58% 30.04 in 6.2 mi ENE 15.0 mph - N/A   Mostly Cloudy
12:00 PM 82.4 °F 83.9 °F 64.4 °F 54% 30.04 in 6.2 mi East 15.0 mph - N/A   Mostly Cloudy
1:00 PM 82.4 °F 83.9 °F 64.4 °F 54% 30.04 in 6.2 mi East 19.6 mph - N/A   Mostly Cloudy
2:00 PM 82 °F - 62 °F 41% 30.02 in 25 mi East 12.7 mph - -   Partly Cloudy
2:00 PM 84.2 °F 84.4 °F 60.8 °F 45% 30.01 in 6.2 mi East 12.7 mph - N/A   Scattered Clouds
3:00 PM 82.4 °F 82.9 °F 60.8 °F 48% 30.01 in 6.2 mi East 17.3 mph - N/A   Partly Cloudy
4:00 PM 80.6 °F 81.8 °F 62.6 °F 54% 29.98 in 6.2 mi East 13.8 mph - N/A   Scattered Clouds
5:00 PM 80 °F - 63 °F 46% 29.99 in 25 mi East 15.0 mph - -   Partly Cloudy
5:00 PM 80.6 °F 81.8 °F 62.6 °F 54% 29.98 in 6.2 mi East 15.0 mph - N/A   Scattered Clouds
6:00 PM 78.8 °F - 62.6 °F 57% 29.98 in 6.2 mi East 13.8 mph - N/A   Partly Cloudy
7:00 PM 78.8 °F - 64.4 °F 61% 30.01 in 6.2 mi East 11.5 mph - N/A   Scattered Clouds
8:00 PM 78 °F - 65 °F 55% 30.04 in 19 mi East 15.0 mph - -   Scattered Clouds
8:00 PM 77.0 °F - 64.4 °F 65% 30.04 in 6.2 mi East 15.0 mph - N/A   Partly Cloudy
9:00 PM 77.0 °F - 64.4 °F 65% 30.04 in 6.2 mi East 12.7 mph - N/A   Scattered Clouds
10:00 PM 77.0 °F - 64.4 °F 65% 30.04 in 6.2 mi East 12.7 mph - N/A   Scattered Clouds
11:00 PM 77 °F - 64 °F 54% 30.05 in 19 mi East 12.7 mph - -   Scattered Clouds
11:00 PM 77.0 °F - 64.4 °F 65% 30.04 in 6.2 mi East 12.7 mph - N/A   Partly Cloudy